Location: Key Biscayne
(25.6930°N, 80.1630°W)
Time: 07:18:37
(UTC-04:00)

Vanguard 2 Rocket - All Passes

Search period start: 22 June 2018 00:00
Search period end: 02 July 2018 00:00
Orbit: 553 x 3328 km, 32.9° (Epoch: 21 June)

Date Brightness Start Highest point End Pass type
(mag) Time Alt. Az. Time Alt. Az. Time Alt. Az.
22 Jun - 07:25:04 10° S 07:38:28 30° SE 07:54:22 10° E daylight
22 Jun - 09:36:52 10° SW 09:55:33 69° SSE 10:14:38 10° ENE daylight
22 Jun - 11:54:13 10° WSW 12:14:57 76° NNW 12:31:00 10° ENE daylight
22 Jun - 14:15:19 10° WNW 14:34:23 66° N 14:46:02 10° E daylight
22 Jun - 16:36:19 10° WNW 16:51:24 87° SSW 16:59:33 10° ESE daylight
22 Jun - 18:56:42 10° W 19:04:36 26° SW 19:09:51 10° S daylight
23 Jun - 06:27:51 10° S 06:37:33 19° SE 06:49:04 10° E daylight
23 Jun - 08:36:44 10° SW 08:53:32 56° SE 09:12:49 10° ENE daylight
23 Jun - 10:52:07 10° WSW 11:12:18 85° NNW 11:30:18 10° ENE daylight
23 Jun - 13:12:02 10° W 13:32:17 67° N 13:46:02 10° E daylight
23 Jun - 15:33:20 10° WNW 15:50:40 79° NNE 16:00:23 10° ESE daylight
23 Jun - 17:53:43 10° WNW 18:05:24 45° SW 18:12:09 10° SSE daylight
24 Jun - 07:37:27 10° SSW 07:51:59 42° SE 08:10:10 10° ENE daylight
24 Jun - 09:50:49 10° WSW 10:09:42 84° SSE 10:29:10 10° ENE daylight
24 Jun - 12:09:06 10° W 12:29:45 70° N 12:45:39 10° ENE daylight
24 Jun - 14:30:10 10° WNW 14:49:18 72° N 15:00:50 10° E daylight
24 Jun - 16:50:51 10° WNW 17:05:38 66° SSW 17:13:47 10° SE daylight
24 Jun - 19:13:17 10° W 19:18:03 15° SW 19:21:49 10° SSW daylight
25 Jun - 06:39:07 10° S 06:51:00 29° SE 07:06:21 10° E daylight
25 Jun - 08:50:19 10° SW 09:07:23 71° SSE 09:27:29 10° ENE daylight
25 Jun - 11:06:46 10° W 11:26:57 76° NNW 11:44:54 10° ENE daylight
25 Jun - 13:27:00 10° WNW 13:47:16 69° N 14:00:52 10° E daylight
25 Jun - 15:47:52 10° WNW 16:05:11 85° SSW 16:14:53 10° ESE daylight
25 Jun - 18:08:56 10° W 18:18:58 29° SW 18:25:24 10° S daylight
26 Jun - 05:42:18 10° SSE 05:50:31 18° SE 06:00:39 10° E visible
26 Jun - 07:50:34 10° SW 08:05:35 56° SE 08:25:11 10° ENE daylight
26 Jun - 10:05:11 10° WSW 10:24:06 84° NNW 10:43:41 10° ENE daylight
26 Jun - 12:24:05 10° W 12:44:43 68° N 13:00:27 10° E daylight
26 Jun - 14:44:50 10° WNW 15:04:01 82° NNE 15:15:31 10° ESE daylight
26 Jun - 17:05:34 10° WNW 17:19:28 47° SW 17:27:34 10° SSE daylight
27 Jun - 06:51:37 10° SSW 07:04:24 42° SE 07:22:06 10° ENE daylight
27 Jun - 09:04:20 10° WSW 09:21:31 85° SSE 09:42:00 10° ENE daylight
27 Jun - 11:21:39 10° W 11:41:48 71° N 11:59:36 10° ENE daylight
27 Jun - 13:41:50 10° WNW 14:02:10 74° NNE 14:15:40 10° E daylight
27 Jun - 16:02:25 10° WNW 16:19:20 66° SSW 16:29:03 10° SE daylight
27 Jun - 18:25:18 10° W 18:32:20 17° SW 18:37:35 10° SSW daylight
28 Jun - 05:53:36 10° S 06:03:52 28° SE 06:18:00 10° E visible
28 Jun - 08:04:14 10° SW 08:19:25 71° SSE 08:39:50 10° ENE daylight
28 Jun - 10:19:51 10° W 10:38:47 75° NNW 10:58:17 10° ENE daylight
28 Jun - 12:39:01 10° WNW 12:59:43 70° N 13:15:18 10° E daylight
28 Jun - 14:59:22 10° WNW 15:18:29 83° SSW 15:29:57 10° ESE daylight
28 Jun - 17:20:45 10° WNW 17:32:58 32° SW 17:40:47 10° SSE daylight
29 Jun - 04:57:15 10° SSE 05:03:48 16° SE 05:12:00 10° E visible
29 Jun - 07:04:51 10° SW 07:17:57 56° SE 07:37:06 10° ENE daylight
29 Jun - 09:18:45 10° WSW 09:35:57 83° NNW 09:56:32 10° ENE daylight
29 Jun - 11:36:36 10° W 11:56:48 69° N 12:14:25 10° E daylight
29 Jun - 13:56:28 10° WNW 14:16:53 84° NNE 14:30:19 10° ESE daylight
29 Jun - 16:17:07 10° WNW 16:33:07 49° SW 16:42:47 10° SSE daylight
30 Jun - 06:06:11 10° SSW 06:17:12 40° SE 06:33:44 10° ENE visible
30 Jun - 08:18:20 10° WSW 08:33:33 86° SSE 08:54:20 10° ENE daylight
30 Jun - 10:34:43 10° W 10:53:42 70° N 11:13:02 10° ENE daylight
30 Jun - 12:53:48 10° WNW 13:14:36 76° NNE 13:30:07 10° E daylight
30 Jun - 15:13:54 10° WNW 15:32:35 66° SW 15:44:04 10° SE daylight
30 Jun - 17:37:00 10° W 17:46:18 20° SW 17:53:03 10° S daylight
01 Jul - 05:08:27 10° S 05:17:06 26° SE 05:29:28 10° E visible
01 Jul - 07:18:36 10° SW 07:31:47 72° SSE 07:51:44 10° ENE daylight
01 Jul - 09:33:26 10° W 09:50:41 75° NNW 10:11:10 10° ENE daylight
01 Jul - 11:51:29 10° WNW 12:11:49 71° N 12:29:18 10° E daylight
01 Jul - 14:10:59 10° WNW 14:31:17 82° SSW 14:44:42 10° ESE daylight
01 Jul - 16:32:18 10° WNW 16:46:35 34° SW 16:55:57 10° SSE daylight
